Weather History for Missoula, MT

Change the Weather History Date:

Wednesday, November 3, 2010

  Actual Average Record
Temperature  
Mean Temperature 41 °F 38 °F  
Max Temperature 56 °F 48 °F 67 °F (1909)
Min Temperature 26 °F 28 °F 0 °F (1991)
Degree Days  
Heating Degree Days 24 27  
Month to date heating degree days 62 79  
Since 1 July heating degree days 899 1021  
Cooling Degree Days 0 0  
Month to date cooling degree days 0 0  
Year to date cooling degree days 244 332  
Moisture  
Dew Point 31 °F    
Average Humidity 68    
Maximum Humidity 92    
Minimum Humidity 43    
Precipitation  
Precipitation 0.00 in 0.03 in 1.04 in (1897)
Month to date precipitation T 0.09  
Year to date precipitation 13.38 12.17  
Snow  
Snow 0.00 in - - ()
Month to date snowfall 0.0  
Year to date snowfall 8.8  
Since 1 July snowfall T  
Snow Depth 0.00 in    
Sea Level Pressure  
Sea Level Pressure 30.63 in    
Wind  
Wind Speed 2 mph (NW)    
Max Wind Speed 8 mph    
Max Gust Speed 14 mph    
Visibility 10 miles    
Events      
T = Trace of Precipitation, MM = Missing Value Source: NWS Daily Summary

Daily Weather History Graph

Daily Weather History Graph

Search for Another Location

Airport:

Trip Planner

Search our weather history database for the weather conditions in past years. The results will help you decide how hot, cold, wet, or windy it might be!

Date:

Astronomy

Nov. 03, 2010 Rise Set
Actual Time 8:21 AM MDT 6:17 PM MDT
Civil Twilight 7:49 AM MDT 6:49 PM MDT
Nautical Twilight 7:13 AM MDT 7:25 PM MDT
Astronomical Twilight 6:38 AM MDT 8:00 PM MDT
Moon 5:17 AM MDT (11/3) 4:35 PM MDT (11/3)
Length of Visible Light 10h 59m
Length of Day
9h 55m
Waning Crescent, 8% of the Moon is Illuminated
Nov 3
Waning Crescent
Nov 5
New
Nov 13
First Quarter
Nov 21
Full
Nov 28
Last Quarter

Hourly Weather History & Observations

Time (MDT) Temp. Windchill Dew Point Humidity Pressure Visibility Wind Dir Wind Speed Gust Speed Precip Events Conditions
12:53 AM 34.0 °F - 30.0 °F 85% 30.68 in 10.0 mi Calm Calm - N/A   Clear
1:53 AM 33.1 °F - 30.0 °F 89% 30.68 in 10.0 mi Calm Calm - N/A   Clear
2:53 AM 30.9 °F - 28.9 °F 92% 30.70 in 10.0 mi Calm Calm - N/A   Clear
3:53 AM 32.0 °F - 28.9 °F 88% 30.69 in 10.0 mi Calm Calm - N/A   Clear
4:53 AM 30.0 °F - 28.0 °F 92% 30.70 in 10.0 mi Calm Calm - N/A   Clear
5:53 AM 28.9 °F 25.2 °F 27.0 °F 92% 30.72 in 10.0 mi WNW 3.5 mph - N/A   Clear
6:53 AM 30.9 °F - 27.0 °F 85% 30.74 in 10.0 mi Calm Calm - N/A   Clear
7:53 AM 28.0 °F - 26.1 °F 92% 30.74 in 10.0 mi Calm Calm - N/A   Clear
8:53 AM 28.0 °F 24.2 °F 26.1 °F 92% 30.74 in 7.0 mi WNW 3.5 mph - N/A   Clear
9:53 AM 35.1 °F - 30.9 °F 85% 30.73 in 10.0 mi Calm Calm - N/A   Clear
10:53 AM 35.1 °F - 32.0 °F 89% 30.72 in 10.0 mi Calm Calm - N/A   Clear
11:53 AM 39.9 °F - 33.1 °F 77% 30.70 in 10.0 mi Calm Calm - N/A   Clear
12:53 PM 45.0 °F - 34.0 °F 65% 30.68 in 10.0 mi Calm Calm - N/A   Clear
1:53 PM 48.9 °F - 34.0 °F 56% 30.63 in 10.0 mi NNW 4.6 mph - N/A   Clear
2:53 PM 53.1 °F - 34.0 °F 48% 30.58 in 10.0 mi WNW 5.8 mph - N/A   Clear
3:53 PM 55.0 °F - 34.0 °F 45% 30.54 in 10.0 mi WNW 5.8 mph - N/A   Clear
4:53 PM 55.9 °F - 35.1 °F 45% 30.52 in 10.0 mi WNW 5.8 mph - N/A   Clear
5:53 PM 51.1 °F - 35.1 °F 54% 30.51 in 10.0 mi NW 8.1 mph - N/A   Clear
6:53 PM 46.0 °F 44.8 °F 35.1 °F 66% 30.50 in 10.0 mi ENE 3.5 mph - N/A   Clear
7:53 PM 43.0 °F - 33.1 °F 68% 30.51 in 10.0 mi Calm Calm - N/A   Clear
8:53 PM 39.9 °F 35.8 °F 32.0 °F 73% 30.52 in 10.0 mi ESE 5.8 mph - N/A   Clear
9:53 PM 37.0 °F - 30.9 °F 79% 30.51 in 10.0 mi Calm Calm - N/A   Clear
10:53 PM 35.1 °F 31.0 °F 30.0 °F 82% 30.52 in 10.0 mi SE 4.6 mph - N/A   Clear
11:53 PM 36.0 °F - 30.9 °F 82% 30.51 in 10.0 mi Calm Calm - N/A   Clear